Location: Newark
(25.1987°N, 100.3705°W)
Time: 10:11:03
(UTC+00:00)

ISS - Pass Details

Date: 07 April 2020
Orbit: 417 x 419 km, 51.6° (Epoch: 03 June)

Event Time Altitude Azimuth Distance (km) Brightness Sun altitude
Rises 01:59:54 0° 334° (NNW) 2,355 0.7 -14.0°
Reaches altitude 10° 02:02:19 10° 350° (N) 1,490 -0.6 -14.5°
Maximum altitude 02:05:00 22° 43° (NE) 960 -2.2 -15.1°
Enters shadow 02:05:26 21° 56° (NE) 977 -2.3 -15.2°
